Regional Weather Roundup
Issued by NWS Sioux Falls, SD

Home | Current Version | Previous Version | Text Only | Print | Product List | Glossary Off
Versions: 1 2 3 4 5 6 7 8 9 10 11 12 13 14 15 16 17 18 19 20 21 22 23 24 25 26 27 28 29 30 31 32 33 34 35 36 37 38 39 40 41 42 43 44 45 46 47 48 49 50

000
ASUS43 KFSD 060710
RWRFSD

WEATHER ROUNDUP FOR SE SOUTH DAKOTA/SW MINNESOTA/NW IOWA
NATIONAL WEATHER SERVICE SIOUX FALLS SD
100 AM CST TUE DEC 06 2016

NOTE: "FAIR" INDICATES FEW OR NO CLOUDS BELOW 12,000 FEET WITH NO
SIGNIFICANT WEATHER AND OR OBSTRUCTIONS TO VISIBILITY.


SDZ038>040-050-052>070-060800-
SOUTHEAST SOUTH DAKOTA

CITY           SKY/WX    TMP DP  RH WIND       PRES   REMARKS
BROOKINGS      FLURRIES  18  12  77 W21G31    29.75R WCI   1
CHAMBERLAIN    CLEAR     17   8  67 NW17G33   29.91S WCI   2
HURON          CLEAR     15   8  73 W22G33    29.85R WCI  -3
MADISON        FLURRIES  16  12  86 W22G32    29.77F WCI  -2
MITCHELL       PTCLDY    18  10  71 NW22G32   29.89R WCI   1
SIOUX FALLS    CLOUDY    21  14  74 W21       29.82R WCI   5
WINNER         FAIR      18   8  65 NW23G32   29.91F WCI   0
YANKTON        MOCLDY   N/A N/A N/A W24       29.88R
$$

MNZ071-072-080-081-089-090-097-098-060800-
SOUTHWEST MINNESOTA

CITY           SKY/WX    TMP DP  RH WIND       PRES   REMARKS
FAIRMONT       CLOUDY    31  26  82 W16       29.76R WCI  20
JACKSON        CLOUDY    28  23  80 W20G28    29.76R WCI  15
LUVERNE        CLOUDY    23  14  68 W22G33    29.79R WCI   8
MARSHALL       CLOUDY    24  17  74 W31G39    29.73R WCI   7
MONTEVIDEO     CLOUDY    25  18  74 NW18G28   29.72R WCI  11
PIPESTONE      MOCLDY    21  16  79 W26G35    29.76R WCI   4
REDWOOD FALLS  CLOUDY    28  20  71 W15       29.72R WCI  16
TRACY          CLOUDY    26  21  79 W16G24    29.74R WCI  14
WINDOM         CLOUDY    28  21  74 W20G26    29.74R WCI  15
WORTHINGTON    CLOUDY    24  18  77 W28G37    29.76R WCI   7
$$

IAZ001>003-012>014-020>022-031-032-NEZ013-014-SDZ071-060800-
NORTHWEST IOWA

CITY           SKY/WX    TMP DP  RH WIND       PRES   REMARKS
CHEROKEE       CLOUDY    28  21  74 NW14G29   29.84R WCI  17
DENISON        CLOUDY    30  25  80 NW14G24   29.82S WCI  20
ESTHERVILLE    CLOUDY    29  25  85 W23G29    29.77R WCI  15
LE MARS        MOCLDY    27  18  69 NW22G39   29.84S WCI  12
ORANGE CITY    MOCLDY    27  21  80 W24       29.81S WCI  12
SHELDON        CLOUDY    25  19  80 W23G35    29.79R WCI  10
SIOUX CITY     CLOUDY    30  18  60 NW15G24   29.84F WCI  19
SPENCER        CLOUDY    28  20  71 W31G40    29.80R WCI  12
STORM LAKE     MIX PCPN  28  25  86 W22G31    29.81R WCI  15
$$

ABBREVIATIONS USED IN REMARKS
   TC - TEMPERATURE IN CELSIUS
  WCI - WIND CHILL INDEX
   HX - HEAT INDEX
  VSB - VISIBILITY




USA.gov is the U.S. government's official web portal to all federal, state and local government web resources and services.